Regional Weather Roundup
Issued by NWS

Home | Current Version | Previous Version | Text Only | Print | Product List | Glossary On
Versions: 1 2 3 4 5 6 7 8 9 10 11 12 13 14 15 16 17 18 19 20 21 22 23 24 25 26 27 28 29 30 31 32 33 34 35 36 37 38 39 40 41 42 43 44 45 46 47 48 49 50
000
ASUS43 KFSD 222002
RWRSD

WEATHER ROUNDUP FOR SOUTH DAKOTA
NATIONAL WEATHER SERVICE SIOUX FALLS SD
300 PM CDT SAT APR 22 2017

NOTE: "FAIR" INDICATES FEW OR NO CLOUDS BELOW 12,000 FEET WITH NO
SIGNIFICANT WEATHER AND/OR OBSTRUCTIONS TO VISIBILITY.


SDZ001>005-009-010-012>017-222100-
NORTHWEST AND NORTH CENTRAL SOUTH DAKOTA

CITY           SKY/WX    TMP DP  RH WIND       PRES   REMARKS
BUFFALO          N/A     63  40  42 W12G23    30.11F
FAITH            N/A     62  40  44 W8G17     30.17F
MOBRIDGE       SUNNY     69  35  28 SW13      30.14F
$$

SDZ012>016-024>037-041>051-057-063-072>074-222100-
SOUTHWEST AND SOUTH CENTRAL SOUTH DAKOTA

CITY           SKY/WX    TMP DP  RH WIND       PRES   REMARKS
RAPID CTY ARPT SUNNY     62  37  39 S15G22    30.18F
PIERRE         SUNNY     65  34  31 SW13      30.19F
CUSTER         MOSUNNY   52  29  41 SW9G20    30.22F
ELLSWORTH AFB  SUNNY     63  38  39 S9G18     30.17F
PHILIP         MOSUNNY   65  38  36 W9        30.19F
PINE RIDGE     SUNNY     63  35  35 S9G16     30.21F
SPEARFISH      FAIR      57  37  47 E9        30.19F
WINNER         FAIR      66  36  32 S7        30.23F
$$

SDZ004>011-016>023-039-040-222100-
NORTHEAST SOUTH DAKOTA

CITY           SKY/WX    TMP DP  RH WIND       PRES   REMARKS
ABERDEEN       SUNNY     67  34  29 W10G22    30.18F
WATERTOWN      SUNNY     63  37  38 SW15      30.20F
BROOKINGS      SUNNY     63  36  36 W12       30.21F
SISSETON         N/A     67  39  35 W9G22     30.16F
$$

SDZ017-020-022-023-036>040-048>070-222100-
SOUTHEAST SOUTH DAKOTA

CITY           SKY/WX    TMP DP  RH WIND       PRES   REMARKS
SIOUX FALLS    MOSUNNY   66  38  35 NW6       30.21F
HURON          SUNNY     67  35  30 W5        30.20F
CHAMBERLAIN    SUNNY     65  38  37 SW5       30.23F
MITCHELL       SUNNY     67  38  34 W14       30.22F
YANKTON        SUNNY     63  36  36 NE3       30.23F
$$

ABBREVIATIONS USED IN REMARKS
   TC - TEMPERATURE IN CELSIUS
  WCI - WIND CHILL INDEX
   HX - HEAT INDEX
  VSB - VISIBILITY





USA.gov is the U.S. government's official web portal to all federal, state and local government web resources and services.